• In Lithuania
  • List of Countries
  • For 7 days
  • Water Temperature
  • Satellite Maps
  • Weather Map
  • Weather Widgets
  • user-avatar
    Login

    Hourly Weather Mundahan

    Today, 19 October, Friday

    Time Temperature Precipitation Wind Pressure Humidity
    00:00 +26°C° 0 mm 2 mps 742 mmHg 87%
    01:00 +26°C° 0 mm 1 mps 742 mmHg 90%
    02:00 +26°C° 0 mm 2 mps 742 mmHg 90%
    03:00 +25°C° 0 mm 2 mps 742 mmHg 90%
    04:00 +25°C° 0 mm 2 mps 742 mmHg 90%
    05:00 +25°C° 0 mm 2 mps 742 mmHg 89%
    06:00 +26°C° 0 mm 2 mps 742 mmHg 88%
    07:00 +26°C° 0 mm 3 mps 743 mmHg 85%
    08:00 +28°C° 0 mm 3 mps 743 mmHg 79%
    09:00 +30°C° 0 mm 3 mps 743 mmHg 73%
    10:00 +32°C° 0 mm 4 mps 743 mmHg 67%
    11:00 +33°C° 0 mm 4 mps 742 mmHg 63%
    12:00 +34°C° 0 mm 4 mps 742 mmHg 59%
    13:00 +35°C° 0 mm 3 mps 741 mmHg 55%
    14:00 +35°C° 0.3 mm 3 mps 741 mmHg 57%
    15:00 +35°C° 0.3 mm 3 mps 741 mmHg 60%
    16:00 +35°C° 0.3 mm 3 mps 741 mmHg 62%
    17:00 +33°C° 0.6 mm 3 mps 741 mmHg 68%
    18:00 +30°C° 0.6 mm 3 mps 741 mmHg 74%
    19:00 +28°C° 0.6 mm 3 mps 742 mmHg 80%
    20:00 +28°C° 0 mm 3 mps 742 mmHg 82%
    21:00 +27°C° 0 mm 3 mps 743 mmHg 83%
    22:00 +26°C° 0 mm 3 mps 743 mmHg 85%
    23:00 +26°C° 0 mm 3 mps 743 mmHg 86%

    Tomorrow, 20 October, Saturday

    Time Temperature Precipitation Wind Pressure Humidity
    00:00 +26°C° 0 mm 3 mps 743 mmHg 87%
    01:00 +26°C° 0 mm 3 mps 743 mmHg 87%
    02:00 +25°C° 0 mm 3 mps 743 mmHg 88%
    03:00 +25°C° 0 mm 3 mps 743 mmHg 88%
    04:00 +25°C° 0 mm 3 mps 743 mmHg 88%
    05:00 +25°C° 0.1 mm 3 mps 743 mmHg 88%
    06:00 +25°C° 0.1 mm 3 mps 743 mmHg 88%
    07:00 +26°C° 0.1 mm 3 mps 743 mmHg 88%
    08:00 +27°C° 0 mm 3 mps 744 mmHg 82%
    09:00 +29°C° 0 mm 3 mps 744 mmHg 76%
    10:00 +32°C° 0 mm 4 mps 745 mmHg 69%
    11:00 +33°C° 0 mm 4 mps 744 mmHg 66%
    12:00 +34°C° 0 mm 4 mps 743 mmHg 62%
    13:00 +35°C° 0 mm 4 mps 742 mmHg 58%
    14:00 +34°C° 0 mm 3 mps 742 mmHg 59%
    15:00 +34°C° 0 mm 3 mps 741 mmHg 59%
    16:00 +34°C° 0 mm 3 mps 741 mmHg 60%
    17:00 +33°C° 0 mm 3 mps 741 mmHg 64%
    18:00 +31°C° 0 mm 3 mps 742 mmHg 68%
    19:00 +29°C° 0 mm 2 mps 742 mmHg 72%
    20:00 +29°C° 0.1 mm 2 mps 743 mmHg 75%
    21:00 +28°C° 0.1 mm 2 mps 743 mmHg 77%
    22:00 +27°C° 0.1 mm 3 mps 744 mmHg 79%
    23:00 +27°C° 0.1 mm 2 mps 744 mmHg 82%

    Day after tomorrow, 21 October, Sunday

    Time Temperature Precipitation Wind Pressure Humidity
    00:00 +26°C° 0.1 mm 2 mps 743 mmHg 84%
    01:00 +26°C° 0.1 mm 2 mps 743 mmHg 87%
    02:00 +25°C° 0.3 mm 2 mps 743 mmHg 89%
    03:00 +25°C° 0.3 mm 2 mps 743 mmHg 90%
    04:00 +25°C° 0.3 mm 2 mps 743 mmHg 92%
    05:00 +25°C° 0.1 mm 2 mps 743 mmHg 92%
    06:00 +25°C° 0.1 mm 2 mps 744 mmHg 91%
    07:00 +25°C° 0.1 mm 2 mps 744 mmHg 91%
    08:00 +27°C° 0 mm 2 mps 745 mmHg 85%
    09:00 +29°C° 0 mm 2 mps 745 mmHg 78%
    10:00 +30°C° 0 mm 2 mps 745 mmHg 72%
    11:00 +31°C° 0 mm 2 mps 745 mmHg 68%
    12:00 +32°C° 0 mm 2 mps 744 mmHg 64%
    13:00 +34°C° 0 mm 2 mps 743 mmHg 60%
    14:00 +34°C° 0 mm 2 mps 742 mmHg 61%
    15:00 +33°C° 0 mm 1 mps 742 mmHg 62%
    16:00 +32°C° 0 mm 1 mps 741 mmHg 63%
    17:00 +31°C° 0 mm 1 mps 742 mmHg 67%
    18:00 +30°C° 0 mm 1 mps 742 mmHg 71%
    19:00 +29°C° 0 mm 1 mps 742 mmHg 75%
    20:00 +28°C° 0 mm 1 mps 743 mmHg 76%
    21:00 +28°C° 0 mm 1 mps 744 mmHg 78%
    22:00 +27°C° 0 mm 1 mps 744 mmHg 80%
    23:00 +27°C° 0 mm 1 mps 744 mmHg 81%

    22 October, Monday

    Time Temperature Precipitation Wind Pressure Humidity
    00:00 +27°C° 0 mm 1 mps 743 mmHg 83%
    01:00 +26°C° 0 mm 1 mps 743 mmHg 85%
    02:00 +26°C° 0 mm 1 mps 743 mmHg 86%
    03:00 +24°C° 0 mm 0 mps 743 mmHg 88%
    04:00 +24°C° 0 mm 0 mps 742 mmHg 89%
    05:00 +26°C° 0 mm 1 mps 743 mmHg 88%
    06:00 +26°C° 0 mm 1 mps 743 mmHg 87%
    07:00 +26°C° 0 mm 1 mps 744 mmHg 86%
    08:00 +28°C° 0 mm 1 mps 744 mmHg 80%
    09:00 +30°C° 0 mm 1 mps 744 mmHg 74%
    10:00 +31°C° 0 mm 2 mps 745 mmHg 68%
    11:00 +32°C° 0.1 mm 2 mps 744 mmHg 64%
    12:00 +33°C° 0.1 mm 1 mps 743 mmHg 60%
    13:00 +34°C° 0.1 mm 1 mps 742 mmHg 56%
    14:00 +34°C° 0.1 mm 1 mps 742 mmHg 57%
    15:00 +34°C° 0.1 mm 1 mps 741 mmHg 57%
    16:00 +31°C° 0.1 mm 0 mps 741 mmHg 57%
    17:00 +30°C° 0 mm 0 mps 741 mmHg 61%
    18:00 +29°C° 0 mm 0 mps 742 mmHg 66%
    19:00 +27°C° 0 mm 0 mps 742 mmHg 70%
    20:00 +27°C° 0.2 mm 0 mps 743 mmHg 73%
    21:00 +26°C° 0.2 mm 0 mps 743 mmHg 76%
    22:00 +28°C° 0.2 mm 1 mps 743 mmHg 79%
    23:00 +27°C° 0.3 mm 1 mps 743 mmHg 82%

    23 October, Tuesday

    Time Temperature Precipitation Wind Pressure Humidity
    00:00 +27°C° 0.3 mm 1 mps 743 mmHg 85%
    01:00 +26°C° 0.3 mm 1 mps 743 mmHg 88%
    02:00 +26°C° 0.5 mm 1 mps 742 mmHg 89%
    03:00 +26°C° 0.5 mm 1 mps 742 mmHg 91%
    04:00 +25°C° 0.5 mm 1 mps 742 mmHg 92%
    05:00 +26°C° 0 mm 1 mps 743 mmHg 91%
    06:00 +26°C° 0 mm 1 mps 743 mmHg 91%
    07:00 +26°C° 0 mm 1 mps 744 mmHg 90%
    08:00 +27°C° 0 mm 2 mps 744 mmHg 85%
    09:00 +29°C° 0 mm 2 mps 744 mmHg 80%
    10:00 +30°C° 0 mm 2 mps 744 mmHg 74%
    11:00 +31°C° 0.7 mm 2 mps 743 mmHg 70%
    12:00 +32°C° 0.7 mm 2 mps 742 mmHg 66%
    13:00 +33°C° 0.7 mm 1 mps 742 mmHg 62%
    14:00 +33°C° 0.2 mm 1 mps 741 mmHg 63%
    15:00 +32°C° 0.2 mm 1 mps 741 mmHg 63%
    16:00 +32°C° 0.2 mm 1 mps 741 mmHg 64%
    17:00 +31°C° 0.3 mm 1 mps 741 mmHg 69%
    18:00 +30°C° 0.3 mm 1 mps 741 mmHg 74%
    19:00 +28°C° 0.3 mm 1 mps 742 mmHg 79%
    20:00 +28°C° 1.4 mm 1 mps 742 mmHg 81%
    21:00 +27°C° 1.4 mm 1 mps 743 mmHg 83%
    22:00 +27°C° 1.4 mm 1 mps 743 mmHg 85%
    23:00 +27°C° 0.9 mm 1 mps 743 mmHg 87%

    24 October, Wednesday

    Time Temperature Precipitation Wind Pressure Humidity
    00:00 +26°C° 0.9 mm 1 mps 743 mmHg 88%
    01:00 +26°C° 0.9 mm 2 mps 743 mmHg 90%
    02:00 +26°C° 0.3 mm 2 mps 743 mmHg 91%
    03:00 +25°C° 0.3 mm 2 mps 742 mmHg 92%
    04:00 +25°C° 0.3 mm 2 mps 742 mmHg 93%
    05:00 +25°C° 0.2 mm 2 mps 743 mmHg 92%
    06:00 +26°C° 0.2 mm 2 mps 743 mmHg 91%
    07:00 +26°C° 0.2 mm 2 mps 744 mmHg 90%
    08:00 +27°C° 0 mm 2 mps 744 mmHg 84%
    09:00 +29°C° 0 mm 2 mps 744 mmHg 78%
    10:00 +31°C° 0 mm 3 mps 744 mmHg 71%
    11:00 +31°C° 0.6 mm 2 mps 743 mmHg 67%
    12:00 +32°C° 0.6 mm 2 mps 743 mmHg 63%
    13:00 +34°C° 0.6 mm 2 mps 742 mmHg 60%
    14:00 +33°C° 0 mm 1 mps 742 mmHg 59%
    15:00 +33°C° 0 mm 1 mps 741 mmHg 59%
    16:00 +31°C° 0 mm 0 mps 741 mmHg 59%
    17:00 +30°C° 0 mm 0 mps 741 mmHg 63%
    18:00 +30°C° 0 mm 1 mps 742 mmHg 68%
    19:00 +29°C° 0 mm 1 mps 742 mmHg 73%
    20:00 +29°C° 0 mm 1 mps 743 mmHg 74%
    21:00 +28°C° 0 mm 1 mps 743 mmHg 76%
    22:00 +28°C° 0 mm 1 mps 744 mmHg 78%
    23:00 +27°C° 0 mm 1 mps 743 mmHg 80%
    Show more